Regional Weather Roundup
Issued by NWS

Home | Current Version | Previous Version | Text Only | Print | Product List | Glossary On
Versions: 1 2 3 4 5 6 7 8 9 10 11 12 13 14 15 16 17 18 19 20 21 22 23 24 25 26 27 28 29 30 31 32 33 34 35 36 37 38 39 40 41 42 43 44 45 46 47 48 49 50
509
ASUS44 KJAN 271703
RWRMS

MISSISSIPPI HOURLY WEATHER ROUNDUP
NATIONAL WEATHER SERVICE JACKSON MS
1200 PM CDT WED AUG 27 2014

NOTE: "FAIR: INDICATES FEW OR NO CLOUDS BELOW 12,000 FEET WITH NO
SIGNIFICANT WEATHER AND/OR OBSTRUCTIONS TO VISIBILITY.

MSZ001>002-007>008-010>013-018>021-025>028-034>036-271800-
NORTHWEST MISSISSIPPI

CITY           SKY/WX    TMP DP  RH WIND       PRES   REMARKS
CLARKSDALE     FAIR      88  68  51 CALM      30.10F HX  91
CLEVELAND      FAIR      89  72  57 SW5       30.08F HX  95
GREENWOOD      MOSUNNY   87  71  58 N3        30.08F HX  93
GREENVILLE     SUNNY     90  63  40 CALM      30.07F HX  91
GRENADA        PTSUNNY   88  68  51 SE3       30.09S HX  91
OLIVE BRANCH   PTSUNNY   84  70  61 NE7       30.11F
OXFORD         FAIR      86  63  45 CALM      30.12S
TUNICA         SUNNY     88  64  45 E5        30.10F
$$

MSZ003>006-009-014>017-022>024-029>033-037>039-271800-
NORTHEAST MISSISSIPPI

CITY           SKY/WX    TMP DP  RH WIND       PRES   REMARKS
BELMONT        FAIR      86  66  50 CALM      30.12S
COLUMBUS AFB   SUNNY     88  62  42 NE5       30.09F
CORINTH        FAIR      88  64  45 E6        30.10F
GOLDN TRIANGLE MOSUNNY   88  63  42 CALM      30.10F
STARKVILLE     FAIR      88  61  40 CALM      30.09F
TUPELO         PTSUNNY   89  61  38 CALM      30.10F
$$

MSZ040-058-271800-
CENTRAL MISSISSIPPI

CITY           SKY/WX    TMP DP  RH WIND       PRES   REMARKS
JACKSON INTL   MOSUNNY   89  63  41 VRB3      30.08S HX  90
JACKSON HAWKNS MOSUNNY   90  63  40 SE12      30.08  HX  91
MERIDIAN KEY   SUNNY     89  58  34 VRB6      30.08F
MERIDIAN NAS   MOSUNNY   90  59  35 VRB5      30.08F
RAYMOND        FAIR      88  82  84 E6        30.08S HX 108
VICKSBURG      SUNNY     90  67  46 NE8       30.06F HX  93
$$

MSZ059>079-271800-
SOUTH MISSISSIPPI

CITY           SKY/WX    TMP DP  RH WIND       PRES   REMARKS
BROOKHAVEN     FAIR      88  70  55 CALM      30.08F HX  92
COLUMBIA       FAIR      90  70  51 MISG      30.04F HX  95
HATTIESBURG    SUNNY     92  66  42 MISG      30.05F HX  94
MCCOMB         SUNNY     89  68  49 SE7       30.06S HX  93
NATCHEZ        SUNNY     88  73  62 SE9       30.06F HX  96
PINE BELT      SUNNY     90  64  43 NE8       30.08F HX  91
$$

MSZ080>082-271800-
COASTAL MISSISSIPPI

CITY           SKY/WX    TMP DP  RH WIND       PRES   REMARKS
BAY ST LOUIS   MOSUNNY  N/A N/A N/A SE7       30.03F
BILOXI         SUNNY     91  70  49 S13       30.04S HX  97
PASCAGOULA     MOSUNNY   90  70  51 VRB7      30.04F HX  95
GULFPORT       MOSUNNY   89  69  51 SE14G22   30.03F HX  93
$$



USA.gov is the U.S. government's official web portal to all federal, state and local government web resources and services.